Location: Village de las Huertas
(35.3014°N, 106.4095°W)
Time: 14:04:40
(UTC+00:00)

Daily predictions for brighter satellites

Satellite Brightness Start Highest point End
(mag) Time Altitude Azimuth Time Altitude Azimuth Time Altitude Azimuth
SL-19 R/B 3.4 12:01:59 10° NNE 12:04:51 86° WNW 12:07:53 10° SSW
Cosmos 1092 Rocket 4.0 12:00:50 10° SSW 12:06:50 56° W 12:12:57 10° N
ERS-2 2.2 12:04:37 10° S 12:08:08 48° W 12:10:47 16° NNW
CZ-4B R/B 1.4 12:05:27 10° S 12:08:53 63° W 12:12:18 10° NNW
deb Chang Zheng 4 3.6 12:05:36 10° N 12:09:45 53° WNW 12:13:54 10° SSW
Cosmos 2082 Rocket 2.9 12:09:55 24° W 12:11:56 30° WNW 12:16:49 10° N
Meteor 1-31 Rocket 2.8 12:08:43 10° N 12:12:34 55° WNW 12:16:23 10° SSW
Cosmos 2369 3.9 12:08:25 10° NNW 12:13:49 47° WSW 12:19:10 10° S
Meteor 1-24 Rocket 4.0 12:09:13 10° SSW 12:14:30 42° WNW 12:20:00 10° N
Okean 1-7 Rocket 3.6 12:14:03 10° SSW 12:18:32 60° W 12:23:01 10° N
SAR-Lupe-1 4.0 12:15:23 10° SSE 12:19:00 87° WSW 12:22:38 10° NNW
Cosmos 2058 Rocket 3.0 12:16:34 10° N 12:21:04 80° W 12:25:29 10° S
Cosmos 1892 Rocket 4.0 12:17:56 10° SW 12:21:55 36° W 12:25:57 10° NNW
PSLV R/B 4.4 12:20:41 10° SSE 12:24:49 67° ENE 12:29:01 10° N
SL-16 R/B 3.8 12:21:06 10° N 12:26:14 34° ENE 12:31:21 10° SE
Cosmos 2098 Rocket 4.0 12:20:15 10° S 12:26:32 73° E 12:31:34 10° N
Geosat 4.0 12:21:44 10° SSE 12:26:41 61° WSW 12:31:39 10° NNW
ALOS 3.0 12:23:06 10° N 12:27:13 31° WNW 12:31:18 10° SW
Gblst 52 Del rocket 4.4 12:24:23 12° WSW 12:29:26 58° NW 12:35:30 10° NE
CZ-4B R/B 3.0 12:27:46 10° N 12:31:53 63° WNW 12:36:09 10° SSW
Cosmos 1140 Rocket 3.4 12:27:02 10° SSW 12:32:10 86° WNW 12:37:19 10° NNE
Cosmos 407 Rocket 3.4 12:28:06 10° SSW 12:33:10 66° WNW 12:38:18 10° NNE
Cosmos 1655 Rocket 4.4 12:29:45 10° S 12:35:59 72° E 12:42:17 10° N
Meteor 2-8 Rocket 4.4 12:30:19 10° N 12:36:29 74° W 12:42:35 10° S
Cosmos 1697 Rocket 3.7 12:32:06 10° NW 12:36:33 24° W 12:41:01 10° SSW
SKYMED 2 3.5 12:33:58 10° S 12:38:17 70° W 12:42:37 10° NNW
SL-27 R/B 2.5 12:35:43 10° SSW 12:39:18 90° ESE 12:42:56 10° NNE
Abrixas rocket 2.3 12:38:21 12° NW 12:40:55 55° NE 12:43:42 10° ESE
Cosmos 1626 Rocket 3.6 12:40:23 10° SSW 12:44:48 65° W 12:49:15 10° N
ATLAS CENTAUR R/B 1.4 12:42:40 10° SW 12:46:31 47° WNW 12:50:12 10° NNE
Meteor 2-1 Rocket 4.4 12:42:17 10° N 12:48:02 86° E 12:53:52 10° S
Cosmos 1602 Rocket 3.5 12:43:59 10° S 12:48:24 83° W 12:52:52 10° N
Cosmos 2360 Rocket 4.5 12:44:13 10° N 12:48:35 23° ENE 12:52:57 10° ESE
ATLAS 3B R/B 4.0 12:44:55 10° W 12:48:59 18° NW 12:53:16 10° N
ADEOS Rocket 4.4 12:47:06 10° WSW 12:49:14 12° W 12:51:23 10° WNW
Cosmos 1400 Rocket 4.0 12:48:20 10° NW 12:51:18 21° W 12:54:14 10° SW
Cosmos 1300 4.3 12:49:06 10° NW 12:51:21 15° W 12:53:36 10° SW
Cosmos 1980 Rocket 3.0 12:55:17 10° NW 13:00:05 30° WSW 13:04:53 10° SSW
Cosmos 1954 Rocket 4.0 12:56:26 10° SSW 13:01:36 81° WNW 13:06:48 10° NNE
